NOAA 16 DEB

Satellite information

Favourite Embed

Satellite Type and Status

DEBRISIN ORBIT

Key statistics

Satellite NOAA 16 DEB at a glance.

Uptime

9118

Days in orbit

Revolutions

≈ 14.7

Per day

Orbit

SSO

Sun Synchronous Orbit

Inclination

98.9

Latest

Satellite identification and parameters

Extended collection of information and parameters for NOAA 16 DEB.

Object identification

Identified? True

Debris? True

Object name: NOAA 16 DEB

International designator: 2000-055H

Object number (NORAD): 41050

Object ID (CCSDS): 41050

Country: UNITED STATES OF AMERICA (US)

Current information (Y/N): Y

RCS size: MEDIUM

Orbital parameters

Period: 97.951 minutes

Inclination: 98.9359 deg

SMA: 7038.793 km

Apoapsis: 669.685 km

Periapsis: 651.632 km

RAAN: 76.1056 deg

Eccentricy: 0.00128242

Argument of periapsis: 227.7289 deg

Mean anomaly: 132.2828 deg

Mean motion: 14.70128976 rev/day

Mean motion (dot): 0.000248 rev/day2

B* drag term: 0.0041136134 1/REarth

Two-line elements (TLE)

Creation date: Sept. 8, 2025, 3:16 a.m.

Reference frame: TEME

Reference center: EARTH

Epoch: Sept. 7, 2025, 7:07 p.m. UTC

TLE line 0: 0 NOAA 16 DEB

TLE line 1: 1 41050U 00055H 25250.79664101 .00024800 00000-0 41136-2 0 9999

TLE line 2: 2 41050 98.9359 76.1056 0012824 227.7289 132.2828 14.70128976509368

Live tracking on map

Real-time ground track for satellite NOAA 16 DEB.

In-orbit conjunctions

A list of the most updated potential collisions computed for object NOAA 16 DEB.

Target Orbit TCA Probability of collision Miss distance Type
PEGASUS DEB LEO 2025-09-02 08:01:09 0.0003347375 76.0 (m) DEBRIS
COSMOS 2251 DEB LEO 2024-07-31 10:25:29 0.0002673866 226.0 (m) DEBRIS

Associated space launch

The NOAA K, L and M POES satellites begin the fifth generation of improved environmental monitoring in support of NOAA missions. The instrument payload has significant improvements and additions/deletions. The instrument changes have effected the spacecraft subsystems and data formats.

NOAA 16 DEB was lifted into orbit during the mission ‘Titan II SLV | NOAA 16’, on board a Titan II SLV space rocket.

The launch took place on Sept. 21, 2000, 10:22 a.m. from Space Launch Complex 4W.

For more information about the launch, click the button.

Launch to space Titan II SLV | NOAA 16
Titan II SLV | NOAA 16

Agency: N/A

Status: Launch Successful

Launch date: Sept. 21, 2000, 10:22 a.m. UTC

Rocket: Titan II SLV

Launch pad: Space Launch Complex 4W

Location: Vandenberg SFB, CA, USA

...

Latest news about this satellite

There are no fresh news available about this satellite. Check back as we update our databases every day.


Newsletter sign-up

Weekly statistics, charts and insights to help you stay on top of the space industry.